sat.trackr.live / text

‹ back to catalog

STARLINK-34688

NORAD 65875 · 2025-223X

PAYLOAD ACTIVE UNKNOWN

§ Identity

Operator
Country
US
Launch date
2025-10-03
Launch site
AFWTR
Launch vehicle
Mass (kg)
RCS (m²)

Purposes: comms

External: N2YO · Heavens-Above · Gunter

§ Orbital elements

Epoch: 2026-05-25T03:23:56.109696Z

Period
93.85 min
Inclination
53.1603°
Eccentricity
0.0001172
Mean motion
15.34392581 rev/d
Perigee alt
461.9 km
Apogee alt
463.5 km
Semi-major
6,840.9 km
B*
8.9766e-4
RAAN
298.8594°
Arg perigee
102.3052°
Mean anomaly
257.8082°
Rev number
3,591

§ Raw data

STARLINK-346881 65875U 25223X   26145.14162164  .00030067  00000+0  89766-3 0  99922 65875  53.1603 298.8594 0001172 102.3052 257.8082 15.34392581 35911

JSON: /api/v1/satellites/65875 · /tle

For live sub-satellite position, see the globe view (requires WebGL).

§ Visibility from observer

Set your observer location to see the next 7 days of passes ≥ 10°. The values pass through the URL so the page stays shareable.

No JS? Fill the form by hand. The geolocation button needs JavaScript.